| time (UTC) | temp F | wind direction | speed MPH | gust MPH | rain 1hr in | rain 24hr in | rain mn in | humidity % | barometer mb |
| 20260507210030 | 69 | 286 | 0.0 | 6.0 | 0.00 | 0.00 | 0.00 | 45 | 1014.8 |
| 20260507204529 | 69 | 131 | 0.0 | 9.0 | 0.00 | 0.00 | 0.00 | 46 | 1015.1 |
| 20260507203027 | 70 | 291 | 0.0 | 10.0 | 0.00 | 0.00 | 0.00 | 42 | 1015.3 |
| 20260507201525 | 70 | 121 | 1.0 | 11.0 | 0.00 | 0.00 | 0.00 | 46 | 1015.6 |
| 20260507200030 | 70 | 261 | 2.0 | 9.0 | 0.00 | 0.00 | 0.00 | 41 | 1015.8 |
| 20260507194516 | 71 | 121 | 0.0 | 8.0 | 0.00 | 0.00 | 0.00 | 41 | 1016.1 |
| 20260507193013 | 70 | 271 | 0.0 | 8.0 | 0.00 | 0.00 | 0.00 | 46 | 1016.4 |
| 20260507191510 | 67 | 262 | 1.0 | 11.0 | 0.00 | 0.00 | 0.00 | 47 | 1016.5 |
| 20260507190022 | 68 | 117 | 0.0 | 8.0 | 0.00 | 0.00 | 0.00 | 45 | 1016.7 |
| 20260507184507 | 67 | 130 | 1.0 | 7.0 | 0.00 | 0.00 | 0.00 | 40 | 1016.6 |
| 20260507183016 | 69 | 215 | 1.0 | 10.0 | 0.00 | 0.00 | 0.00 | 41 | 1016.7 |
| 20260507181502 | 69 | 227 | 0.0 | 7.0 | 0.00 | 0.00 | 0.00 | 42 | 1017.0 |
| 20260507180105 | 68 | 224 | 4.0 | 10.0 | 0.00 | 0.00 | 0.00 | 40 | 1017.3 |
| 20260507174556 | 66 | 237 | 0.0 | 10.0 | 0.00 | 0.00 | 0.00 | 44 | 1017.6 |
| 20260507173056 | 67 | 212 | 0.0 | 11.0 | 0.00 | 0.00 | 0.00 | 44 | 1017.7 |
| 20260507171555 | 67 | 229 | 1.0 | 8.0 | 0.00 | 0.00 | 0.00 | 44 | 1018.1 |
| 20260507170049 | 67 | 179 | 0.0 | 8.0 | 0.00 | 0.00 | 0.00 | 44 | 1018.4 |
| 20260507164544 | 67 | 307 | 0.0 | 5.0 | 0.00 | 0.00 | 0.00 | 44 | 1018.5 |
| 20260507163044 | 66 | 233 | 2.0 | 7.0 | 0.00 | 0.00 | 0.00 | 44 | 1018.8 |
| 20260507161542 | 66 | 277 | 1.0 | 6.0 | 0.00 | 0.00 | 0.00 | 48 | 1018.8 |
| 20260507160039 | 65 | 205 | 0.0 | 7.0 | 0.00 | 0.00 | 0.00 | 47 | 1018.8 |
| 20260507154539 | 64 | 179 | 1.0 | 6.0 | 0.00 | 0.00 | 0.00 | 46 | 1019.1 |
| 20260507153042 | 64 | 199 | 0.0 | 8.0 | 0.00 | 0.00 | 0.00 | 49 | 1019.2 |
| 20260507151531 | 62 | 197 | 0.0 | 6.0 | 0.00 | 0.00 | 0.00 | 56 | 1019.3 |
| 20260507150031 | 61 | 214 | 1.0 | 9.0 | 0.00 | 0.00 | 0.00 | 52 | 1019.4 |
| 20260507144529 | 61 | 212 | 1.0 | 5.0 | 0.00 | 0.00 | 0.00 | 54 | 1019.5 |
| 20260507143028 | 62 | 191 | 0.0 | 2.0 | 0.00 | 0.00 | 0.00 | 54 | 1019.6 |
| 20260507141524 | 62 | 271 | 0.0 | 1.0 | 0.00 | 0.00 | 0.00 | 61 | 1019.9 |
| 20260507140020 | 59 | 212 | 0.0 | 1.0 | 0.00 | 0.00 | 0.00 | 64 | 1020.0 |
| 20260507134519 | 57 | 245 | 0.0 | 0.0 | 0.00 | 0.00 | 0.00 | 67 | 1020.0 |
| 20260507133011 | 55 | 233 | 0.0 | 1.0 | 0.00 | 0.00 | 0.00 | 71 | 1020.1 |
| 20260507131506 | 53 | 236 | 0.0 | 1.0 | 0.00 | 0.00 | 0.00 | 73 | 1020.5 |
| 20260507130002 | 51 | 240 | 0.0 | 1.0 | 0.00 | 0.00 | 0.00 | 79 | 1020.6 |
| 20260507124612 | 50 | 238 | 0.0 | 1.0 | 0.00 | 0.00 | 0.00 | 86 | 1020.5 |
| 20260507123100 | 48 | 232 | 0.0 | 1.0 | 0.00 | 0.00 | 0.00 | 90 | 1020.3 |
| 20260507121550 | 46 | 223 | 0.0 | 1.0 | 0.00 | 0.00 | 0.00 | 91 | 1020.1 |
| 20260507120047 | 44 | 226 | 0.0 | 0.0 | 0.00 | 0.00 | 0.00 | 94 | 1020.0 |
| 20260507114547 | 42 | 220 | 0.0 | 0.0 | 0.00 | 0.00 | 0.00 | 94 | 1019.9 |
| 20260507113044 | 40 | 242 | 0.0 | 1.0 | 0.00 | 0.00 | 0.00 | 95 | 1019.9 |
| 20260507111546 | 39 | 240 | 0.0 | 0.0 | 0.00 | 0.00 | 0.00 | 94 | 1019.8 |
| 20260507110039 | 40 | 240 | 0.0 | 0.0 | 0.00 | 0.00 | 0.00 | 94 | 1019.7 |
| 20260507104540 | 40 | 167 | 0.0 | 1.0 | 0.00 | 0.00 | 0.00 | 94 | 1019.7 |
| 20260507103036 | 40 | 212 | 0.0 | 0.0 | 0.00 | 0.00 | 0.00 | 94 | 1019.6 |
| 20260507101544 | 41 | 212 | 0.0 | 0.0 | 0.00 | 0.00 | 0.00 | 94 | 1019.6 |
| 20260507100036 | 41 | 212 | 0.0 | 0.0 | 0.00 | 0.00 | 0.00 | 94 | 1019.5 |
| 20260507094533 | 41 | 212 | 0.0 | 0.0 | 0.00 | 0.00 | 0.00 | 94 | 1019.5 |
| 20260507093038 | 41 | 212 | 0.0 | 0.0 | 0.00 | 0.00 | 0.00 | 94 | 1019.5 |
| 20260507091530 | 41 | 212 | 0.0 | 0.0 | 0.00 | 0.00 | 0.00 | 94 | 1019.4 |
| 20260507090032 | 41 | 210 | 0.0 | 0.0 | 0.00 | 0.00 | 0.00 | 94 | 1019.2 |
| 20260507084529 | 41 | 226 | 0.0 | 0.0 | 0.00 | 0.00 | 0.00 | 94 | 1019.1 |
| 20260507083036 | 41 | 230 | 0.0 | 1.0 | 0.00 | 0.00 | 0.00 | 94 | 1019.3 |
| 20260507081528 | 40 | 220 | 0.0 | 0.0 | 0.00 | 0.00 | 0.00 | 94 | 1019.3 |
| 20260507080022 | 40 | 219 | 0.0 | 0.0 | 0.00 | 0.00 | 0.00 | 94 | 1019.3 |
| 20260507074527 | 41 | 233 | 0.0 | 0.0 | 0.00 | 0.01 | 0.00 | 93 | 1019.5 |
| 20260507073018 | 41 | 218 | 0.0 | 1.0 | 0.00 | 0.01 | 0.00 | 93 | 1019.6 |
| 20260507071516 | 41 | 237 | 0.0 | 0.0 | 0.00 | 0.01 | 0.00 | 93 | 1019.8 |
| 20260507070016 | 41 | 214 | 0.0 | 0.0 | 0.00 | 0.01 | 0.00 | 93 | 1019.9 |
| 20260507064517 | 41 | 224 | 0.0 | 1.0 | 0.00 | 0.03 | 0.00 | 93 | 1019.9 |
| 20260507063013 | 41 | 220 | 0.0 | 0.0 | 0.00 | 0.03 | 0.00 | 93 | 1019.7 |
| 20260507061511 | 42 | 219 | 0.0 | 1.0 | 0.00 | 0.03 | 0.00 | 92 | 1019.8 |
| 20260507060009 | 42 | 232 | 0.0 | 0.0 | 0.00 | 0.03 | 0.00 | 92 | 1019.9 |
| 20260507054508 | 42 | 222 | 0.0 | 0.0 | 0.00 | 0.04 | 0.00 | 92 | 1019.8 |
| 20260507053006 | 43 | 244 | 0.0 | 0.0 | 0.00 | 0.04 | 0.00 | 91 | 1020.0 |
| 20260507051504 | 43 | 173 | 0.0 | 0.0 | 0.00 | 0.04 | 0.00 | 91 | 1019.9 |
| 20260507050003 | 43 | 221 | 0.0 | 0.0 | 0.00 | 0.04 | 0.00 | 90 | 1019.8 |
| 20260507044623 | 43 | 216 | 0.0 | 0.0 | 0.00 | 0.12 | 0.04 | 90 | 1019.7 |
| 20260507043100 | 44 | 216 | 0.0 | 0.0 | 0.00 | 0.12 | 0.04 | 89 | 1019.5 |
| 20260507041605 | 44 | 212 | 0.0 | 0.0 | 0.00 | 0.12 | 0.04 | 87 | 1019.5 |
| 20260507040104 | 44 | 212 | 0.0 | 0.0 | 0.00 | 0.12 | 0.04 | 86 | 1019.7 |
| 20260507034558 | 45 | 212 | 0.0 | 0.0 | 0.00 | 0.25 | 0.04 | 84 | 1019.6 |
| 20260507033053 | 45 | 212 | 0.0 | 0.0 | 0.00 | 0.25 | 0.04 | 82 | 1019.6 |
| 20260507031555 | 46 | 213 | 0.0 | 0.0 | 0.00 | 0.25 | 0.04 | 80 | 1019.5 |
| 20260507030054 | 47 | 214 | 0.0 | 0.0 | 0.00 | 0.25 | 0.04 | 77 | 1019.4 |
| 20260507024550 | 49 | 221 | 0.0 | 0.0 | 0.00 | 0.27 | 0.04 | 74 | 1019.4 |
| 20260507023049 | 51 | 314 | 0.0 | 0.0 | 0.00 | 0.27 | 0.04 | 66 | 1019.2 |
| 20260507021548 | 52 | 314 | 0.0 | 0.0 | 0.00 | 0.27 | 0.04 | 57 | 1019.0 |
| 20260507020057 | 52 | 337 | 0.0 | 0.0 | 0.00 | 0.27 | 0.04 | 55 | 1018.9 |
| 20260507014600 | 53 | 356 | 0.0 | 0.0 | 0.00 | 0.27 | 0.04 | 53 | 1018.9 |
| 20260507013048 | 54 | 238 | 0.0 | 2.0 | 0.00 | 0.27 | 0.04 | 53 | 1018.7 |
| 20260507011555 | 55 | 35 | 0.0 | 1.0 | 0.00 | 0.27 | 0.04 | 53 | 1018.5 |
| 20260507010047 | 56 | 310 | 0.0 | 2.0 | 0.00 | 0.27 | 0.04 | 52 | 1018.2 |
| 20260507004546 | 56 | 332 | 0.0 | 2.0 | 0.00 | 0.27 | 0.04 | 49 | 1017.8 |
| 20260507003046 | 57 | 326 | 1.0 | 7.0 | 0.00 | 0.27 | 0.04 | 47 | 1017.8 |
| 20260507001557 | 57 | 4 | 1.0 | 7.0 | 0.00 | 0.27 | 0.04 | 47 | 1017.7 |
| 20260507000048 | 58 | 352 | 0.0 | 9.0 | 0.00 | 0.27 | 0.04 | 46 | 1017.8 |
| 20260506234546 | 58 | 36 | 5.0 | 11.0 | 0.00 | 0.28 | 0.04 | 44 | 1017.5 |
| 20260506233044 | 59 | 35 | 2.0 | 10.0 | 0.00 | 0.28 | 0.04 | 43 | 1017.6 |
| 20260506231542 | 60 | 353 | 0.0 | 8.0 | 0.00 | 0.28 | 0.04 | 43 | 1017.7 |
| 20260506230047 | 60 | 277 | 5.0 | 12.0 | 0.00 | 0.28 | 0.04 | 42 | 1017.8 |
| 20260506224542 | 60 | 16 | 4.0 | 11.0 | 0.00 | 0.28 | 0.04 | 42 | 1017.8 |
| 20260506223041 | 61 | 4 | 3.0 | 13.0 | 0.00 | 0.28 | 0.04 | 44 | 1017.5 |
| 20260506221542 | 61 | 15 | 2.0 | 14.0 | 0.00 | 0.28 | 0.04 | 45 | 1017.6 |
| 20260506220047 | 61 | 344 | 1.0 | 10.0 | 0.00 | 0.28 | 0.04 | 45 | 1017.6 |
| 20260506214538 | 61 | 13 | 3.0 | 14.0 | 0.00 | 0.30 | 0.04 | 44 | 1017.5 |
| 20260506213037 | 61 | 24 | 4.0 | 10.0 | 0.00 | 0.30 | 0.04 | 45 | 1017.6 |
| 20260506211537 | 62 | 47 | 8.0 | 14.0 | 0.00 | 0.30 | 0.04 | 45 | 1017.5 |